sat.trackr.live / text

‹ back to catalog

METEOR-M 2

NORAD 40069 · 2014-037A

PAYLOAD ACTIVE UNKNOWN

§ Identity

Operator
Country
CIS
Launch date
2014-07-08
Launch site
TYMSC
Launch vehicle
Mass (kg)
RCS (m²)
8.66

Purposes: earth_obs

External: N2YO · Heavens-Above · Gunter

§ Orbital elements

Epoch: 2026-05-25T04:45:40.876992Z

Period
101.30 min
Inclination
98.5104°
Eccentricity
0.0006928
Mean motion
14.21455331 rev/d
Perigee alt
815.4 km
Apogee alt
825.4 km
Semi-major
7,198.6 km
B*
2.3357e-4
RAAN
121.7533°
Arg perigee
100.0753°
Mean anomaly
260.1206°
Rev number
61,605

§ Raw data

METEOR-M 21 40069U 14037A   26145.19838978  .00000469  00000+0  23357-3 0  99962 40069  98.5104 121.7533 0006928 100.0753 260.1206 14.21455331616055

JSON: /api/v1/satellites/40069 · /tle

For live sub-satellite position, see the globe view (requires WebGL).

§ Visibility from observer

Set your observer location to see the next 7 days of passes ≥ 10°. The values pass through the URL so the page stays shareable.

No JS? Fill the form by hand. The geolocation button needs JavaScript.

§ Radio — SatNOGS DB

ModeDescriptionDownlinkUplink
HRPT HRPT 1.700 GHz
LRPT LRPT 1 137.100 MHz
LRPT LRPT 2 (inactive) 137.900 MHz

3 transmitters · refreshed weekly from db.satnogs.org